Regional Weather Roundup
Issued by NWS New Orleans/Baton Rouge, LA

Home | Current Version | Previous Version | Text Only | Print | Product List | Glossary Off
Versions: 1 2 3 4 5 6 7 8 9 10 11 12 13 14 15 16 17 18 19 20 21 22 23 24 25 26 27 28 29 30 31 32 33 34 35 36 37 38 39 40 41 42 43 44 45 46 47 48 49 50

876
ASUS44 KLIX 011807
RWRLIX
NEW ORLEANS REGIONAL WEATHER ROUNDUP
NATIONAL WEATHER SERVICE NEW ORLEANS LA
100 PM CDT WED APR 01 2015

NOTE: "FAIR" INDICATES FEW OR NO CLOUDS BELOW 12,000 FEET WITH NO
      SIGNIFICANT WEATHER AND/OR OBSTRUCTIONS TO VISIBILITY.
      SKY/WX - SKY CONDITION AND SIGNIFICANT WEATHER.
      TMP - AIR TEMPERATURE.     DP    - DEWPOINT TEMPERATURE.
      RH  - RELATIVE HUMIDITY.   PRES  - PRESSURE.
      HI  - HEAT INDEX.          WCI   - WIND CHILL INDEX.

*  THESE STATIONS ARE NOT NWS OR FAA STATIONS AND ARE NOT UNDER
   NWS QUALITY CONTROL.

LAZ038-040-048-061>063-065>067-069-011900-
SOUTHEAST LOUISIANA

CITY           SKY/WX    TMP DP  RH WIND       PRES   REMARKS
N.O. AUDUBON   NOT AVBL
N.O. INTL ARPT PTSUNNY   78  59  51 W6        30.08F
6HR MIN TEMP:  65; 6HR MAX TEMP:  80;

N.O. LAKEFRONT PTSUNNY   79  63  57 N8        30.09F
6HR MIN TEMP:  67; 6HR MAX TEMP:  80;

SLIDELL          N/A     79  61  53 VRB7      30.08F
6HR MIN TEMP:  57; 6HR MAX TEMP:  80;

BATON ROUGE    PTSUNNY   82  60  47 S8        30.06F
6HR MIN TEMP:  59; 6HR MAX TEMP:  82;

BOOTHVILLE       N/A     77  68  73 SE7       30.11F
6HR MIN TEMP:  65; 6HR MAX TEMP:  77;

BELLE CHASSE   PTSUNNY   77  62  59 S9        30.08F
6HR MIN TEMP:  59; 6HR MAX TEMP:  79;

BOGALUSA*        N/A     79  62  56 W5        30.10F
6HR MIN TEMP:  60; 6HR MAX TEMP:  79;

GALLIANO*        N/A     82  64  53 MISG      30.10F
6HR MIN TEMP:  55; 6HR MAX TEMP:  82;

NEW ROADS*       N/A     78  60  53 S6        30.06F
6HR MIN TEMP:  63; 6HR MAX TEMP:  80;

GONZALES*        N/A     82  59  46 S9        30.07F
6HR MIN TEMP:  61; 6HR MAX TEMP:  82;

HAMMOND*         N/A     81  57  44 S8        30.09F
HOUMA*         PTSUNNY   81  66  61 SE13      30.09F
PORT FOURCHON* CLEAR     75  68  78 E10       30.13F

$$

MSZ070-080>082-011900-
SOUTHERN MISSISSIPPI

CITY           SKY/WX    TMP DP  RH WIND       PRES   REMARKS
MCCOMB           N/A     77  63  61 S10G16    30.08F
6HR MIN TEMP:  63; 6HR MAX TEMP:  78;

GULFPORT         N/A     77  65  66 S12       30.10F
6HR MIN TEMP:  61; 6HR MAX TEMP:  77;

BILOXI           N/A     75  68  78 S12       30.10F
6HR MIN TEMP:  65; 6HR MAX TEMP:  76;

PASCAGOULA       N/A     80  64  58 S12G17    30.10F
6HR MIN TEMP:  57; 6HR MAX TEMP:  80;

STENNIS ARPT*  MOSUNNY   79  55  44 MISG      30.09F

$$

COASTAL OBSERVATIONS
LAKE AND NEARSHORE STATIONS

STATION/POSITION TIME  TEMP    WIND        PRES    WAVE
                       AIR SEA DIR/SP/G            HT/PER
                 (UTC) (F)     (DEG/KT/KT) (MB)    (FT/S)
PASCAGOULA       1700   74     180/  7/  8 1019.6
WAVELAND YACHT   1700   71 69  150/  9/ 11 1019.7
GRAND ISLE       1700   74 71  110/  4/  9 1020.1
SOUTHWEST PASS   1700   77 55   70/ 10/ 11 1020.7
NEW CANAL        1700   77     230/  5/  9 1019.9
SHELL BEACH      1700   76 71  170/  8/ 11 1019.8

OFFSHORE STATIONS

STATION/POSITION TIME  TEMP    WIND        PRES    WAVE
                       AIR SEA DIR/SP/G            HT/PER
                 (UTC) (F)     (DEG/KT/KT) (MB)    (FT/S)
64 S DAUPHIN ISL 1750   72 74  140/  6/  8 1020.2    2/ 7

$$




USA.gov is the U.S. government's official web portal to all federal, state and local government web resources and services.